User: anonymous   Login
Location: Ch�tillon
(48.8024°N, 2.2935°E)
Time: 05:18:48
(UTC+00:00)
Language:

CZ-2C R/B - Orbit

View from above orbital plane
View from above orbital plane
View from above satellite
View from above satellite

Ground track
Ground track

The orbit data is extracted from the following two-line orbital elements,

1 31114U 07010B   22021.79041831  .00000023  00000-0  29227-4 0  9999
2 31114  98.2287 205.1470 0059795   6.9288 353.2703 14.19387885765763
Epoch (UTC): 21 January 2022 18:58:12
Eccentricity: 0.0059795
inclination: 98.2287°
perigee height: 784 km
apogee height: 870 km
right ascension of ascending node: 205.1470°
argument of perigee: 6.9288°
revolutions per day: 14.19387885
mean anomaly at epoch: 353.2703°
orbit number at epoch: 76576

The dashed part of the orbit path shows where the satellite is in the earth's shadow,  

DLR